Miscellaneous Local Product
Issued by NWS Hastings, NE

Home | Current Version | Previous Version | Graphics & Text | Print | Product List | Glossary On
Versions: 1 2 3 4 5 6 7 8 9 10 11 12 13 14 15 16 17 18 19 20 21 22 23 24 25 26 27 28 29 30 31 32 33 34 35 36 37 38 39 40 41 42 43 44 45 46 47 48 49 50
000
AXUS43 KGID 212102
MISGRI

GID CWA HOURLY WEATHER ROUNDUP
NATIONAL WEATHER SERVICE HASTINGS NE
300 PM CST SUN DEC 21 2014

NOTE: "FAIR" INDICATES FEW OR NO CLOUDS BELOW 12,000 FEET WITH NO
SIGNIFICANT WEATHER AND/OR OBSTRUCTIONS TO VISIBILITY.

...SOUTH CENTRAL NEBRASKA...

CITY           SKY/WX    TMP DP  RH WIND       PRES   REMARKS
GRAND ISLAND   CLOUDY    41  38  89 S15       29.64F FOG
HASTINGS       CLOUDY    41  37  86 S14G23    29.62F
KEARNEY        CLOUDY    39  36  87 S16G23    29.61F WCI  30
ORD            CLOUDY    35  32  88 S15       29.58F FOG     WCI  25
YORK           CLOUDY    41  39  93 S15       29.68F FOG
AURORA         CLOUDY    40  40 100 S14G22    29.64F FOG     WCI  33
LEXINGTON      CLOUDY    39  36  89 S12       29.59F WCI  32
HOLDREGE       CLOUDY    39  37  91 S12       29.60F FOG     WCI  32
HEBRON         CLOUDY    42  39  89 S10G18    29.71F FOG

...NEBRASKA PANHANDLE...

CITY           SKY/WX    TMP DP  RH WIND       PRES   REMARKS
CHADRON        CLOUDY    45  31  58 W9        29.39F
ALLIANCE       CLOUDY    41  29  62 SW15      29.43F
SCOTTSBLUFF    CLOUDY    44  32  62 W16       29.45F
SIDNEY         CLOUDY    40  27  59 SW9       29.52F WCI  34

...WESTERN AND NORTH CENTRAL NEBRASKA...

CITY           SKY/WX    TMP DP  RH WIND       PRES   REMARKS
VALENTINE      CLOUDY    42  31  64 S9        29.43F
AINSWORTH      PTSUNNY   38  31  74 S13       29.47F WCI  31
ONEILL         SUNNY     38  35  89 S13       29.54F WCI  30
BROKEN BOW     CLOUDY    38  33  82 S18G25    29.56S WCI  28
IMPERIAL       CLOUDY    46  30  53 S7        29.53F
NORTH PLATTE   CLOUDY    42  31  64 S5        29.54F
MCCOOK         CLOUDY    40  32  73 S13       29.57F WCI  32

...EASTERN NEBRASKA...

CITY           SKY/WX    TMP DP  RH WIND       PRES   REMARKS
NORFOLK        CLOUDY    39  37  92 S16       29.62F FOG     WCI  30
SO SIOUX CITY  CLOUDY    42  38  85 S20G25    29.69F
TEKAMAH        CLOUDY    42  38  85 S21G30    29.72F
COLUMBUS       CLOUDY    41  36  81 S18       29.68F
ALBION         CLOUDY    37  34  90 S15       29.63F FOG     WCI  28
OMAHA EPPLEY   CLOUDY    42  39  89 S21       29.76F
OFFUTT AFB     CLOUDY    41  38  89 S13G22    29.76S
MILLARD        CLOUDY    42  38  86 S12G18    29.75S
LINCOLN        CLOUDY    41  39  93 S12       29.73F FOG
NEBRASKA CITY  CLOUDY    41  40  98 S12       29.77F
BEATRICE       CLOUDY    42  39  91 S15G22    29.74F
FALLS CITY     CLOUDY    43  39  86 S9        29.79F

...NORTHERN KANSAS...

CITY           SKY/WX    TMP DP  RH WIND       PRES   REMARKS
GOODLAND       CLOUDY    49  33  54 SE7       29.56F
HILL CITY      PTSUNNY   46  36  68 S15       29.63F
NORTON         CLOUDY    43  34  70 S13G18    29.59F
PHILLIPSBURG   CLOUDY    46  39  76 S15       29.63F
SMITH CENTER   CLOUDY    39  37  93 S14       29.67F WCI  31
BELOIT         CLOUDY    43  41  93 S9        29.70F
HAYS           CLOUDY    45  34  65 S14G20    29.66F
RUSSELL        CLOUDY    42  40  92 S14       29.66F
CONCORDIA      CLOUDY    41  40  96 S13       29.71F FOG
SALINA         CLOUDY    44  41  89 S15       29.74F
TOPEKA         CLOUDY   N/A N/A N/A S9        29.83F



USA.gov is the U.S. government's official web portal to all federal, state and local government web resources and services.